Vertical_Velocity
0 1 0 0 -1 -0 1 -0 0 -0 1 0 0 1 0 -1 -2 -1 1 0 -0 -1 -0 -1 0 1 -0 -0 -1 0 0 -1 -1 -1 2 0 -1 -0 1 2 -0 -0 1
0 1 -1 -1 -2 2 0 1 0 1 1 -1 -1 0 2 -1 1 -1 0 -1 1 1 1 -1 -1 -1 -0 -1 -1 -1 1 -0 -0 0 -2 -0 -0 1 1 -1 0 3 1
0 2 7 -1 0 2 4 3 2 -1 1 -0 -2 -0 1 2 -0 1 -0 -0 -2 -0 0 -1 -1 0 -1 -1 -2 -1 0 1 -1 1 1 -1 -1 -1 1 0 -1 -2 -1
2 3 1 -3 3 1 6 6 6 5 4 -0 2 2 -1 1 0 -1 -3 0 -1 -0 -1 -1 -1 -1 0 -2 -1 -1 -1 -0 0 1 -0 0 4 1 -0 1 -1 -1 -1
2 -0 0 5 7 3 4 7 6 7 1 -0 2 3 1 0 2 0 -1 -2 -1 3 2 1 -0 -1 -2 -0 -4 -2 -2 0 -0 2 2 -2 1 -1 1 2 6 7 0
0 -2 -2 1 2 3 5 2 4 3 3 1 -2 6 3 0 1 1 4 -1 2 -0 0 -0 -0 -1 -1 -0 -0 -1 -2 0 1 2 6 -1 0 -1 -1 4 5 4 1
4 1 2 4 6 2 3 5 5 3 5 4 4 3 -0 7 6 7 4 4 -6 2 0 1 2 -0 -0 -0 -1 -1 -1 -2 -0 4 3 2 3 -1 2 1 1 1 5
3 -1 -1 1 0 2 6 4 4 1 8 5 3 3 -5 0 -1 -2 7 1 6 -1 2 -1 0 -1 -1 -2 1 1 0 -2 -2 2 1 1 1 1 2 -0 5 -3 4
6 1 2 -2 3 -2 4 6 4 4 1 5 6 5 -3 -4 5 1 2 0 0 -0 -2 -0 2 -0 1 -1 -2 0 -1 -0 -1 7 4 4 8 1 -0 1 -2 3 2
2 3 1 -1 -1 0 1 3 1 2 6 7 7 7 4 1 -1 -3 1 2 1 1 0 2 1 3 -1 -1 -1 -1 0 2 -0 -4 -3 1 2 -1 2 5 4 2 -2
0 1 3 2 -0 0 -2 5 5 4 2 4 11 15 6 1 2 -4 -6 4 -4 0 2 -1 0 2 1 2 3 3 1 -1 -0 2 2 -2 -1 2 1 0 8 -2 -1
-1 0 1 1 -5 -2 -0 -0 13 6 9 8 11 8 16 7 4 -1 -3 -2 -16 1 1 4 2 -4 1 -3 3 -1 -3 6 5 1 2 -4 1 -1 0 1 -1 -2 -1
5 -0 -3 0 2 -2 -3 -1 -0 5 6 2 -1 4 22 23 -1 0 -1 4 -9 -3 -8 4 -0 2 1 -3 -1 -0 -4 -4 -3 -2 -4 0 1 -2 0 1 -3 1 1
-1 3 0 0 2 4 -1 -4 -1 2 3 2 8 4 -1 2 18 0 -3 -1 -7 -5 -2 -2 -6 2 -4 5 -5 -3 -4 -6 -1 -3 3 -1 -1 -4 3 -1 4 1 0
1 1 1 2 1 3 0 -2 1 6 5 0 -2 -1 -7 0 -1 2 1 2 1 -5 -5 -3 -7 2 -2 4 6 3 -0 -1 10 5 -1 7 1 -2 -4 -1 -1 -2 -3
-0 -0 -0 -1 0 1 0 2 1 1 2 1 2 -3 1 -4 -1 -0 -1 -2 -1 -2 -8 4 4 -10 6 -0 -8 -3 16 14 23 2 -6 -2 -4 -0 -2 0 1 1 3
-0 -0 -1 4 4 3 0 -4 -2 1 0 1 -0 -1 2 4 0 -3 -3 0 0 1 -2 -1 -1 -6 -1 -3 -7 2 4 0 -8 2 -1 -3 -5 -3 0 1 0 -1 -2
-1 -1 -1 -1 -2 -6 -4 2 4 4 0 -2 -2 -4 -2 -2 0 -1 2 -3 1 -5 -2 -1 -1 9 0 6 5 3 -4 3 -2 -0 0 -1 -2 -1 -2 -2 -2 -2 -4
-2 -2 -0 -0 1 2 3 3 1 -1 -2 -1 1 2 -0 2 -0 -5 -3 2 -4 0 4 -2 -1 -9 -6 -1 -1 -2 2 1 1 -0 -3 0 1 -1 -1 -2 -3 -3 -1
4 5 -1 -5 -3 -1 1 -0 -2 -1 -0 0 2 1 0 -2 -4 3 3 2 9 -0 1 0 1 -1 1 0 0 2 1 -2 3 -5 -1 -0 -0 -1 -6 -4 -1 -1 -3
-7 -6 -4 0 3 -4 -2 4 -1 -0 -0 4 1 3 3 0 4 -2 1 1 2 -0 2 -1 -1 1 -0 0 -1 -1 1 1 7 -1 3 2 2 1 -3 -3 -5 -5 -2
-2 -5 -3 -0 -1 -1 4 -4 1 2 -2 -1 -5 -3 -4 0 0 1 -1 -1 2 -2 -2 -2 -0 -0 1 1 3 1 -0 1 5 -4 -2 18 -4 7 1 -2 -3 -2 -1
-4 -4 -3 -1 1 0 -1 2 0 1 1 2 3 3 1 -0 1 2 2 2 2 1 2 2 2 2 1 1 1 3 -3 -2 -1 2 -8 13 -5 6 -0 -0 -4 -2 -2
2 2 2 1 0 -1 -2 -2 -2 -1 -1 -1 -1 0 1 1 1 -1 -0 -0 1 0 -1 -3 -2 -1 -3 -2 -1 -1 -1 1 3 6 -12 -4 -2 2 4 -6 -4 -2 -2
-1 -1 -1 -1 -0 -0 -1 -1 1 1 1 3 3 2 2 1 1 2 -0 -1 0 1 1 1 -0 -2 -1 -1 -3 1 -1 -3 1 8 -4 -11 4 -4 2 -1 -5 -5 -5
-1 -2 -2 -3 -2 -1 0 0 -0 -0 -1 0 2 2 2 0 0 2 2 1 -2 -2 -3 -3 -4 -3 -2 -2 -3 -4 -5 -5 -5 1 3 -9 7 -15 -4 12 1 -2 -0
Height
3141 3142 3142 3143 3144 3144 3145 3145 3145 3145 3146 3146 3146 3146 3147 3147 3148 3148 3148 3148 3149 3148 3147 3146 3145 3145 3145 3144 3143 3143 3141 3140 3140 3139 3138 3137 3136 3136 3135 3134 3133 3132 3131
3134 3135 3136 3136 3137 3138 3138 3138 3139 3139 3140 3139 3140 3141 3142 3142 3143 3143 3143 3143 3143 3143 3143 3143 3142 3141 3141 3140 3140 3140 3138 3137 3136 3136 3135 3134 3133 3132 3132 3130 3129 3128 3128
3126 3127 3128 3129 3131 3131 3131 3131 3131 3132 3133 3134 3135 3135 3136 3137 3137 3137 3137 3137 3138 3138 3138 3138 3138 3137 3137 3136 3136 3135 3134 3133 3132 3132 3131 3130 3129 3128 3128 3126 3125 3124 3123
3116 3117 3118 3120 3123 3123 3124 3125 3125 3126 3127 3127 3129 3130 3130 3130 3131 3131 3131 3132 3133 3134 3134 3134 3133 3133 3132 3131 3130 3130 3130 3129 3128 3126 3125 3124 3123 3122 3122 3121 3121 3120 3118
3104 3106 3109 3111 3114 3115 3116 3117 3118 3119 3120 3121 3122 3123 3123 3124 3125 3125 3126 3127 3128 3129 3129 3129 3129 3128 3127 3126 3124 3124 3123 3123 3122 3120 3119 3118 3117 3116 3116 3115 3115 3114 3111
3095 3096 3097 3101 3104 3105 3107 3109 3111 3113 3114 3115 3116 3116 3116 3117 3117 3118 3119 3121 3123 3123 3123 3123 3122 3122 3121 3120 3118 3117 3116 3116 3115 3114 3112 3111 3111 3110 3109 3109 3108 3107 3106
3082 3084 3086 3091 3094 3095 3097 3100 3102 3104 3105 3108 3107 3108 3109 3110 3110 3112 3112 3113 3115 3117 3117 3117 3116 3114 3114 3112 3111 3110 3109 3108 3108 3106 3104 3104 3103 3102 3102 3101 3100 3100 3099
3072 3074 3075 3078 3083 3085 3087 3090 3092 3094 3097 3099 3099 3100 3100 3102 3102 3106 3106 3108 3109 3111 3111 3110 3108 3106 3104 3103 3102 3101 3100 3100 3100 3098 3096 3096 3096 3095 3094 3093 3094 3093 3092
3058 3060 3063 3066 3070 3074 3078 3081 3083 3086 3088 3091 3091 3092 3091 3093 3097 3099 3100 3101 3102 3103 3103 3103 3101 3098 3096 3094 3093 3093 3092 3091 3090 3089 3089 3089 3087 3086 3086 3086 3085 3084 3082
3047 3050 3052 3056 3059 3062 3066 3070 3074 3077 3079 3082 3083 3084 3085 3087 3088 3090 3092 3094 3095 3095 3095 3094 3092 3090 3087 3085 3085 3084 3083 3082 3080 3080 3081 3081 3080 3080 3079 3076 3076 3075 3074
3037 3040 3042 3044 3048 3050 3055 3059 3064 3068 3071 3074 3076 3077 3078 3078 3079 3080 3081 3084 3085 3086 3086 3085 3083 3081 3079 3077 3075 3075 3074 3073 3073 3073 3072 3073 3072 3071 3071 3071 3070 3067 3066
3030 3031 3034 3037 3039 3041 3045 3050 3055 3058 3061 3064 3066 3067 3068 3069 3071 3073 3072 3073 3074 3075 3076 3076 3073 3072 3070 3068 3067 3066 3066 3065 3065 3064 3063 3063 3062 3063 3064 3062 3061 3059 3057
3023 3025 3027 3028 3031 3035 3038 3041 3045 3048 3051 3053 3055 3056 3056 3056 3059 3062 3064 3063 3063 3063 3065 3067 3066 3063 3063 3060 3059 3058 3058 3057 3055 3055 3054 3054 3055 3054 3052 3052 3051 3049 3048
3019 3020 3021 3022 3025 3027 3030 3032 3036 3040 3044 3046 3048 3050 3051 3051 3048 3052 3055 3056 3054 3052 3052 3055 3057 3056 3053 3051 3049 3049 3048 3048 3046 3045 3046 3045 3044 3044 3043 3042 3041 3040 3039
3014 3014 3015 3016 3019 3021 3023 3025 3029 3032 3034 3038 3041 3044 3045 3046 3046 3048 3049 3049 3048 3044 3043 3042 3044 3045 3044 3043 3041 3041 3039 3038 3037 3037 3036 3036 3036 3034 3033 3032 3030 3029 3027
3010 3010 3011 3012 3013 3015 3017 3019 3023 3025 3028 3031 3033 3036 3037 3039 3040 3040 3041 3041 3040 3039 3036 3035 3034 3034 3034 3033 3032 3030 3029 3029 3028 3028 3026 3026 3026 3023 3021 3019 3018 3016 3014
3006 3007 3006 3006 3007 3010 3012 3014 3017 3019 3021 3023 3026 3028 3029 3030 3030 3031 3032 3031 3031 3030 3029 3027 3026 3025 3025 3024 3024 3023 3020 3019 3019 3020 3019 3017 3015 3012 3010 3007 3005 3003 3001
3002 3003 3004 3004 3005 3006 3007 3009 3011 3013 3015 3017 3018 3020 3021 3022 3022 3022 3022 3021 3020 3021 3018 3018 3016 3017 3016 3016 3016 3013 3012 3012 3013 3010 3007 3006 3003 3001 2998 2995 2991 2989 2986
2998 2999 3000 3000 3001 3002 3003 3005 3006 3007 3008 3009 3010 3012 3013 3013 3013 3013 3012 3011 3011 3012 3010 3009 3009 3009 3007 3006 3007 3006 3005 3004 3002 2999 2997 2995 2991 2988 2986 2982 2978 2975 2972
2994 2997 2998 2998 2999 2999 2999 2999 3000 3001 3001 3001 3002 3003 3004 3005 3006 3005 3004 3004 3004 3004 3004 3003 3003 3002 3000 2999 2998 2997 2996 2993 2994 2989 2986 2983 2980 2978 2974 2968 2965 2961 2959
2997 2998 2998 2998 2997 2997 2994 2992 2994 2994 2995 2995 2996 2996 2996 2997 2999 2999 3000 2999 2999 2999 2998 2997 2995 2994 2992 2991 2989 2987 2986 2985 2984 2980 2976 2974 2970 2967 2962 2958 2953 2949 2946
2998 2998 2997 2997 2996 2995 2991 2991 2992 2992 2993 2992 2993 2993 2993 2993 2993 2995 2995 2994 2994 2992 2991 2990 2988 2986 2983 2981 2978 2976 2973 2971 2971 2972 2964 2966 2958 2955 2950 2946 2941 2937 2933
3000 2999 2998 2997 2996 2995 2994 2993 2993 2993 2993 2992 2991 2990 2989 2990 2991 2991 2989 2988 2987 2986 2985 2982 2980 2978 2975 2972 2969 2967 2963 2959 2956 2955 2950 2948 2946 2943 2938 2934 2928 2924 2920
2999 2998 2997 2996 2994 2993 2992 2992 2991 2991 2990 2989 2988 2987 2987 2987 2986 2985 2983 2982 2981 2980 2978 2975 2973 2971 2969 2965 2960 2958 2955 2952 2948 2945 2938 2932 2932 2930 2927 2922 2916 2912 2909
2997 2995 2994 2992 2991 2990 2990 2989 2988 2987 2986 2985 2985 2984 2983 2982 2981 2980 2978 2975 2973 2972 2969 2968 2965 2962 2958 2956 2951 2947 2944 2940 2937 2935 2931 2922 2919 2914 2913 2911 2905 2901 2896
2994 2992 2991 2990 2989 2989 2987 2986 2986 2985 2984 2982 2981 2979 2978 2976 2975 2974 2973 2972 2969 2967 2964 2960 2957 2954 2950 2947 2943 2938 2933 2929 2925 2920 2919 2913 2910 2903 2899 2903 2898 2893 2888